OBJECT D, 62732

Orbit data source: Space-Track

You're viewing an Uncataloged Satellite

Recently launched and/or uncataloged satellites may have evolving metadata. Metadata may include but not limited to: Owner, Maufacturer, Bus, Motor, and Mission.

OBJECT D, 62732 is a Chinese satellite in SSO that was launched on Mon, 20 Jan 2025 UTC via a GUSHENXING 1 launch vehicle from the Jiuquan Satellite Launch Center, China (JSC). Unknown objects in Earth's orbit typically refer to objects detected orbiting the Earth but have not yet been identified or cataloged. These objects could be anything from previously untracked satellites, spent rocket stages, debris from satellite collisions, or even natural meteoroids temporarily captured by Earth's gravity.

Loading next visibility...
Identifier
62732, 2025-013D
Orbit
SSO
Country
Flag of CNCN / PRC
Related business
None
Manufacturer
Unknown
Mission
Operational Commercial Meteo Radio Occ.
Bus & Motor
Unknown
Mass
Unknown
Launch date (UTC)
2025-01-20 (9 months ago)
Launch vehicle
GUSHENXING 1
Launch site
Jiuquan Satellite Launch Center, China (JSC)
Object type
Unknown
Shape & HBR
Box + 1 Pan, 0.6 m
Radar Cross Section
5.339 m², Medium (>0.1 m² and < 1m²)

Expand to show TLE details & history
Last TLE update: 22 hours ago

TLE from 22 hours ago
0 OBJECT D
1 62732U 25013D   25306.50665000  .00004286  00000-0  27410-3 0  9996
2 62732  97.6354 111.3127 0010249  87.6459 272.5943 15.09102818 43067
Epoch: 2025-11-02T12:09Z
TLE epoch observation values (Epoch: 2025-11-02T12:09:34.560Z)
Latitude
-0.00005°
Longitude
-113.10268°
Altitude
541.695 km
Speed
7.592 km/s
True Right ascension
07h 25m 15s
True Declination
0° 00' 00"
Sunlit
Object was in daylight at epoch
Visualization orbit readout
Latitude
Unknown
Longitude
Unknown
Altitude
Unknown
Speed
Unknown
Apparent Right ascension
Unknown
Apparent Declination
Unknown
Sunlit
N/A
Visualization observer readout
Local Sidereal Time
05:43:25
Azimuth
Unknown
Elevation
Unknown
Doppler factor
Unknown
Orbital elements
Apogee altitude
543.017 km
Perigee altitude
528.844 km
Semi-major axis
6,914.067 km
Eccentricity
0.00102
Inclination
97.6354°
RAAN
111.3127°
Arg. of periapsis
87.6459°
True anomaly
272.47697°
Mean anomaly
272.5943°
Eccentric anomaly
272.53564°
Mean motion
3.77522 °/min
Orbital period
95.36 mins
BSTAR
0.0002741
Loading maneuver chart data...
Computing Atmospheric mass density...
Loading historical data...
Loading historical data...
Loading historical data...
Loading historical data...
Loading historical data...
Loading historical data...
Loading historical data...
Other satellites on launch #13 in the year 2025 (2025-01-20 UTC)

Documentation

Showing up to 5 results
|